Tracking 30970 objects as of 3-Jul-2025
HD Live streaming from Space Station
objects crossing your sky now

DELTA 1 DEB

Track DELTA 1 DEB now!
10-day predictions


NORAD ID: 7058
Int'l Code: 1973-086BA
Perigee: 1,444.7 km
Apogee: 1,459.9 km
Inclination: 101.8 °
Period: 114.8 minutes
Semi major axis: 7823 km
RCS: 0.0607 m2 (small)
Launch date: November 6, 1973
Source: United States (US)
Launch site: AIR FORCE WESTERN TEST RANGE (AFWTR)

Note: This is SATELLITE DEBRIS
Your satellite tracking list
Your tracking list is empty




NASA's NSSDC Master Catalog

Two Line Element Set (TLE):
1 07058U 73086BA  25183.95808895  .00000340  00000-0  23852-2 0  9994
2 07058 101.8090 167.8657 0009658  32.7310  37.3053 12.54636947355365
Source of the keplerian elements: AFSPC